{"data":{"norad_id":7646,"epoch":"2026-09-20T00:16:17.312736Z","epoch_age_seconds":53295,"freshness":"FRESH","line1":"1 07646U 75010A   26263.01131149 -.00000144  00000+0  61063-7 0  9997","line2":"2 07646  49.8227  90.3072 0205607  16.3067 344.4315 13.82351658607651","mean_motion":13.82351658,"eccentricity":0.0205607,"inclination_deg":49.8227,"raan_deg":90.3072,"arg_perigee_deg":16.3067,"mean_anomaly_deg":344.4315,"bstar":6.1063e-8,"rev_number":60765,"period_min":104.1703094626,"perigee_km":804.77163350066,"apogee_km":1106.3434196048,"semimajor_km":7333.6945265528,"source":"CELESTRAK","updated_at":"2026-09-20T09:00:47.279645Z"}}